This is the latest recevied weather packets stored in our database for station/object DN9EM-2. If no packets are shown the sender has not sent any weather packets the latest 10 day(s).
| Time | Temp. | Humidity | Pressure | Rain* | Wind** | Luminosity | Snow |
|---|---|---|---|---|---|---|---|
| 1777476039 | 16.67° C | 43% | 1030.9 hPa | 0 mm | - | - | - |
| 1777475436 | 16.11° C | 40% | 1031 hPa | 0 mm | - | - | - |
| 1777474834 | 16.67° C | 39% | 1031.1 hPa | 0 mm | - | - | - |
| 1777474231 | 16.11° C | 39% | 1031.1 hPa | 0 mm | - | - | - |
| 1777473628 | 16.67° C | 39% | 1031.1 hPa | 0 mm | - | - | - |
| 1777473026 | 16.67° C | 37% | 1031.2 hPa | 0 mm | - | - | - |
| 1777472423 | 16.67° C | 38% | 1031.2 hPa | 0 mm | - | - | - |
| 1777471820 | 16.11° C | 36% | 1031.3 hPa | 0 mm | - | - | - |
| 1777471218 | 16.11° C | 38% | 1031.2 hPa | 0 mm | - | - | - |
| 1777470615 | 16.11° C | 37% | 1031.3 hPa | 0 mm | - | - | - |
| 1777470073 | 16.11° C | 39% | 1031.5 hPa | 0 mm | - | - | - |
| 1777469470 | 16.11° C | 37% | 1031.5 hPa | 0 mm | - | - | - |
| 1777468867 | 16.11° C | 37% | 1031.5 hPa | 0 mm | - | - | - |
| 1777468265 | 15.56° C | 37% | 1031.4 hPa | 0 mm | - | - | - |
| 1777467662 | 16.11° C | 38% | 1031.5 hPa | 0 mm | - | - | - |
| 1777467059 | 15.56° C | 37% | 1031.5 hPa | 0 mm | - | - | - |
| 1777466457 | 15.56° C | 37% | 1031.4 hPa | 0 mm | - | - | - |
| 1777465854 | 15.56° C | 39% | 1031.4 hPa | 0 mm | - | - | - |
| 1777465251 | 15.56° C | 39% | 1031.4 hPa | 0 mm | - | - | - |
| 1777464649 | 15.56° C | 41% | 1031.7 hPa | 0 mm | - | - | - |
| 1777464046 | 15° C | 42% | 1031.6 hPa | 0 mm | - | - | - |
| 1777463443 | 15° C | 41% | 1031.6 hPa | 0 mm | - | - | - |
| 1777462841 | 15° C | 41% | 1031.5 hPa | 0 mm | - | - | - |
| 1777462238 | 15° C | 41% | 1031.6 hPa | 0 mm | - | - | - |
| 1777461636 | 14.44° C | 42% | 1031.8 hPa | 0 mm | - | - | - |
* Rain latest hour (hover to see other rain measurements)
** Current wind speed in m/s (hover to see current wind gust speed)